Weather History for Presque Isle, ME

Change the Weather History Date:

Monday, January 21, 2013

  Actual Average Record
Temperature  
Mean Temperature 0 °F -  
Max Temperature 8 °F 18 °F 45 °F (1947)
Min Temperature -9 °F -2 °F -29 °F (1970)
Degree Days  
Heating Degree Days 66    
Moisture  
Dew Point -12 °F    
Average Humidity 53    
Maximum Humidity 92    
Minimum Humidity 34    
Precipitation  
Precipitation 0.00 in - - ()
Sea Level Pressure  
Sea Level Pressure 29.76 in    
Wind  
Wind Speed 11 mph (WSW)    
Max Wind Speed 18 mph    
Max Gust Speed 26 mph    
Visibility 10 miles    
Events      
Averages and records for this station are not official NWS values.
T = Trace of Precipitation, MM = Missing Value Source: NWS Daily Summary

Daily Weather History Graph

Daily Weather History Graph

Search for Another Location

Airport:

Trip Planner

Search our weather history database for the weather conditions in past years. The results will help you decide how hot, cold, wet, or windy it might be!

Date:

Astronomy

Jan. 21, 2013 Rise Set
Actual Time 7:07 AM EST 4:19 PM EST
Civil Twilight 6:34 AM EST 4:53 PM EST
Nautical Twilight 5:57 AM EST 5:30 PM EST
Astronomical Twilight 5:21 AM EST 6:06 PM EST
Moon 11:56 AM EST (1/21) 2:33 AM EST (1/21)
Length of Visible Light 10h 18m
Length of Day
9h 12m
Waxing Gibbous, 75% of the Moon is Illuminated
Jan 21
Waxing Gibbous
Jan 26
Full
Feb 3
Last Quarter
Feb 10
New
Feb 17
First Quarter

Hourly Weather History & Observations

Time (EST) Temp. Windchill Dew Point Humidity Pressure Visibility Wind Dir Wind Speed Gust Speed Precip Events Conditions
12:15 AM 5.0 °F -12.3 °F -7.6 °F 56% 29.57 in 10.0 mi West 13.8 mph 24.2 mph N/A   Clear
12:35 AM 5.0 °F -13.0 °F -7.6 °F 56% 29.58 in 10.0 mi WSW 15.0 mph 21.9 mph N/A   Partly Cloudy
12:55 AM 3.2 °F -13.9 °F -7.6 °F 61% 29.58 in 10.0 mi WSW 12.7 mph 16.1 mph N/A   Scattered Clouds
1:15 AM 3.2 °F -12.2 °F -7.6 °F 61% 29.59 in 10.0 mi WSW 10.4 mph - N/A   Mostly Cloudy
1:35 AM 3.2 °F -12.2 °F -5.8 °F 66% 29.60 in 10.0 mi WSW 10.4 mph 16.1 mph N/A   Partly Cloudy
1:55 AM 3.2 °F -15.3 °F -7.6 °F 61% 29.60 in 10.0 mi WSW 15.0 mph 25.3 mph N/A   Clear
2:15 AM 3.2 °F -13.9 °F -9.4 °F 56% 29.62 in 10.0 mi West 12.7 mph 23.0 mph N/A   Clear
2:35 AM 3.2 °F -14.6 °F -7.6 °F 61% 29.61 in 10.0 mi WSW 13.8 mph 19.6 mph N/A   Clear
2:55 AM 3.2 °F -12.2 °F -9.4 °F 56% 29.62 in 10.0 mi WSW 10.4 mph 19.6 mph N/A   Clear
3:15 AM 3.2 °F -13.1 °F -9.4 °F 56% 29.62 in 10.0 mi WSW 11.5 mph 19.6 mph N/A   Clear
3:35 AM 1.4 °F -16.1 °F -9.4 °F 61% 29.63 in 10.0 mi WSW 12.7 mph 16.1 mph N/A   Clear
3:55 AM 1.4 °F -16.9 °F -9.4 °F 61% 29.64 in 10.0 mi WSW 13.8 mph 23.0 mph N/A   Clear
4:15 AM 1.4 °F -18.2 °F -9.4 °F 61% 29.65 in 10.0 mi West 16.1 mph 25.3 mph N/A   Clear
4:35 AM 1.4 °F -17.6 °F -11.2 °F 56% 29.66 in 10.0 mi WSW 15.0 mph 21.9 mph N/A   Clear
4:55 AM 1.4 °F -18.8 °F -11.2 °F 56% 29.67 in 10.0 mi WSW 17.3 mph 24.2 mph N/A   Clear
5:15 AM -0.4 °F -19.9 °F -11.2 °F 60% 29.67 in 10.0 mi West 15.0 mph 23.0 mph N/A   Clear
5:35 AM -0.4 °F -21.2 °F -11.2 °F 60% 29.68 in 10.0 mi WSW 17.3 mph 23.0 mph N/A   Clear
5:55 AM -0.4 °F -20.5 °F -13.0 °F 55% 29.68 in 10.0 mi West 16.1 mph 24.2 mph N/A   Clear
6:15 AM -0.4 °F -21.2 °F -11.2 °F 60% 29.68 in 10.0 mi WSW 17.3 mph 21.9 mph N/A   Clear
6:35 AM -0.4 °F -19.2 °F -13.0 °F 55% 29.69 in 10.0 mi WSW 13.8 mph 24.2 mph N/A   Clear
7:15 AM -2.2 °F -21.5 °F -11.2 °F 66% 29.71 in 10.0 mi WSW 13.8 mph 17.3 mph N/A   Clear
7:35 AM -2.2 °F -21.5 °F -13.0 °F 60% 29.72 in 10.0 mi WSW 13.8 mph 19.6 mph N/A   Clear
7:55 AM -0.4 °F -18.4 °F -13.0 °F 55% 29.74 in 10.0 mi WSW 12.7 mph 21.9 mph N/A   Clear
8:15 AM -0.4 °F -19.2 °F -13.0 °F 55% 29.75 in 10.0 mi WSW 13.8 mph 23.0 mph N/A   Clear
8:35 AM -0.4 °F -19.9 °F -14.8 °F 51% 29.76 in 10.0 mi WSW 15.0 mph 23.0 mph N/A   Clear
8:55 AM -0.4 °F -16.7 °F -13.0 °F 55% 29.77 in 10.0 mi WSW 10.4 mph 18.4 mph N/A   Clear
9:15 AM 1.4 °F -16.9 °F -14.8 °F 47% 29.78 in 10.0 mi WSW 13.8 mph 19.6 mph N/A   Clear
9:35 AM 1.4 °F -16.9 °F -11.2 °F 56% 29.80 in 10.0 mi WSW 13.8 mph 20.7 mph N/A   Clear
9:55 AM 1.4 °F -16.1 °F -13.0 °F 51% 29.81 in 10.0 mi WSW 12.7 mph 19.6 mph N/A   Clear
10:35 AM 3.2 °F -13.1 °F -14.8 °F 43% 29.81 in 10.0 mi WSW 11.5 mph 19.6 mph N/A   Clear
10:55 AM 3.2 °F -10.3 °F -11.2 °F 51% 29.80 in 10.0 mi WSW 8.1 mph 18.4 mph N/A   Clear
11:15 AM 5.0 °F -10.0 °F -13.0 °F 43% 29.79 in 10.0 mi West 10.4 mph 20.7 mph N/A   Clear
11:35 AM 6.8 °F -10.0 °F -11.2 °F 44% 29.79 in 10.0 mi WSW 13.8 mph 19.6 mph N/A   Clear
11:55 AM 6.8 °F -8.6 °F -11.2 °F 44% 29.78 in 10.0 mi WSW 11.5 mph 19.6 mph N/A   Clear
12:15 PM 8.6 °F -5.5 °F -11.2 °F 40% 29.79 in 10.0 mi West 10.4 mph 18.4 mph N/A   Clear
12:35 PM 8.6 °F -9.5 °F -9.4 °F 44% 29.78 in 10.0 mi WSW 17.3 mph 25.3 mph N/A   Clear
12:55 PM 8.6 °F -7.0 °F -9.4 °F 44% 29.78 in 10.0 mi WSW 12.7 mph 21.9 mph N/A   Clear
1:15 PM 8.6 °F -10.0 °F -11.2 °F 40% 29.78 in 10.0 mi WSW 18.4 mph 24.2 mph N/A   Clear
1:35 PM 8.6 °F -9.5 °F -9.4 °F 44% 29.79 in 10.0 mi WSW 17.3 mph 24.2 mph N/A   Clear
1:55 PM 8.6 °F -7.7 °F -9.4 °F 44% 29.79 in 10.0 mi WSW 13.8 mph 24.2 mph N/A   Clear
2:15 PM 8.6 °F -5.5 °F -11.2 °F 40% 29.80 in 10.0 mi WSW 10.4 mph 26.5 mph N/A   Clear
2:35 PM 8.6 °F -7.0 °F -11.2 °F 40% 29.81 in 10.0 mi WSW 12.7 mph 23.0 mph N/A   Clear
2:55 PM 8.6 °F -7.7 °F -9.4 °F 44% 29.81 in 10.0 mi WSW 13.8 mph 19.6 mph N/A   Clear
3:15 PM 8.6 °F -6.3 °F -11.2 °F 40% 29.82 in 10.0 mi WSW 11.5 mph 16.1 mph N/A   Clear
3:35 PM 6.8 °F -7.8 °F -9.4 °F 48% 29.82 in 10.0 mi WSW 10.4 mph 16.1 mph N/A   Clear
3:55 PM 6.8 °F -5.9 °F -9.4 °F 48% 29.82 in 10.0 mi SW 8.1 mph - N/A   Clear
4:15 PM 6.8 °F -5.9 °F -9.4 °F 48% 29.82 in 10.0 mi WSW 8.1 mph - N/A   Clear
4:35 PM 6.8 °F -0.1 °F -7.6 °F 52% 29.82 in 10.0 mi WSW 3.5 mph - N/A   Clear
4:55 PM 6.8 °F -3.5 °F -9.4 °F 48% 29.82 in 10.0 mi WSW 5.8 mph 16.1 mph N/A   Clear
5:15 PM 5.0 °F - -9.4 °F 52% 29.83 in 10.0 mi Calm Calm - N/A   Clear
5:35 PM 3.2 °F -9.1 °F -9.4 °F 56% 29.83 in 10.0 mi WSW 6.9 mph - N/A   Clear
5:55 PM 3.2 °F -6.2 °F -11.2 °F 51% 29.82 in 10.0 mi WNW 4.6 mph - N/A   Clear
6:15 PM 3.2 °F - -9.4 °F 56% 29.83 in 10.0 mi Calm Calm - N/A   Clear
6:35 PM -0.4 °F -8.3 °F -11.2 °F 60% 29.83 in 10.0 mi ENE 3.5 mph - N/A   Clear
6:55 PM -0.4 °F - -9.4 °F 66% 29.84 in 10.0 mi Calm Calm - N/A   Clear
7:15 PM -0.4 °F - -11.2 °F 60% 29.85 in 10.0 mi Calm Calm - N/A   Clear
7:35 PM -4.0 °F - -7.6 °F 85% 29.85 in 10.0 mi Calm Calm - N/A   Clear
7:55 PM -2.2 °F - -14.8 °F 55% 29.86 in 10.0 mi Calm Calm - N/A   Clear
8:35 PM -5.8 °F - -7.6 °F 92% 29.86 in 10.0 mi Calm Calm - N/A   Clear
8:55 PM -7.6 °F - -20.2 °F 54% 29.86 in 10.0 mi Calm Calm - N/A   Clear
9:15 PM -7.6 °F - -25.6 °F 41% 29.86 in 10.0 mi Calm Calm - N/A   Clear
9:35 PM -7.6 °F - -29.2 °F 34% 29.87 in 10.0 mi Calm Calm - N/A   Clear
9:55 PM -7.6 °F - -18.4 °F 59% 29.87 in 10.0 mi Calm Calm - N/A   Clear
10:15 PM -7.6 °F - -20.2 °F 54% 29.86 in 10.0 mi Calm Calm - N/A   Clear
10:35 PM -7.6 °F - -20.2 °F 54% 29.85 in 10.0 mi Calm Calm - N/A   Clear
10:55 PM -9.4 °F - - N/A% - 10.0 mi Calm Calm - N/A   Clear
11:15 PM -7.6 °F - - N/A% - 10.0 mi Calm Calm - N/A   Clear
11:35 PM -9.4 °F - - N/A% - 10.0 mi Calm Calm - N/A   Clear
11:55 PM -7.6 °F - -27.4 °F 38% 29.84 in 10.0 mi Calm Calm - N/A   Clear